Preview of NWS' New Version of Forecast
This preview is not operational and should not be used for support decisions.

Regional Weather Roundup (RWR)

Issued by National Weather Service (NWS)

                            
000
ASUS45 KABQ 250601
RWRNM 
NEW MEXICO REGIONAL WEATHER ROUNDUP
NATIONAL WEATHER SERVICE ALBUQUERQUE NM
1200 AM MDT SUN AUG 25 2019

NOTE: "FAIR" MEANS FEW OR NO CLOUDS BELOW 12,000 FEET AGL WITH NO
       SIGNIFICANT WEATHER OR OBSTRUCTIONS TO VISION.

      THIS PRODUCT IS RELEASED AS TWO VERSIONS.  ONE VERSION NEAR
      THE TOP OF THE HOUR CONTAINING PRELIMINARY DATA FROM ALBUQUERQUE
      AND OTHER STATIONS.  A FINAL VERSION WITH ADDITIONAL DATA IS 
      ISSUED ABOUT 10 MINUTES AFTER THE HOUR.
 
NMZ501-503-504-510>518-250700-
NORTHWEST PLATEAU/NORTHCENTRAL MOUNTAINS
  
CITY           SKY/WX    TMP DP  RH WIND       PRES   REMARKS
FARMINGTON     FAIR      70  26  19 N8        30.10S                  
6HR MIN TEMP:  68; 6HR MAX TEMP:  94;                                

LOS ALAMOS       N/A     75  24  15 CALM      30.23S                  
SANTA FE       FAIR      67  32  27 NE12      30.16S                  
6HR MIN TEMP:  67; 6HR MAX TEMP:  91;                                

TAOS           FAIR      59  33  37 NE6       30.24S                  
ANGEL FIRE     FAIR      44  35  68 CALM      30.34S                  

$$
NMZ402-403-502-505>509-250700-
WESTCENTRAL MOUNTAINS/SOUTHWEST MOUNTAINS
  
CITY           SKY/WX    TMP DP  RH WIND       PRES   REMARKS
GALLUP         FAIR      62  27  26 NE5       30.23F                  
6HR MIN TEMP:  61; 6HR MAX TEMP:  89;                                

GRANTS         FAIR      68  30  24 N3        30.24S                  
SILVER CITY    FAIR      69  53  55 NW9       30.18S                  

$$
NMZ407-409-411-412-250700-
SOUTHERN DESERTS
  
CITY           SKY/WX    TMP DP  RH WIND       PRES   REMARKS
DEMING         FAIR      79  61  53 W13       30.09S                  
6HR MIN TEMP:  79; 6HR MAX TEMP:  93;                                

LAS CRUCES     FAIR      80  57  45 W14       30.08S                  
HOLLOMAN AFB   FAIR      83  51  32 SE7       30.05S                  
ALAMOGORDO     FAIR      81  48  32 S8        30.05S                  
T OR C         FAIR      82  48  30 W8        30.07S                  
6HR MIN TEMP:  81; 6HR MAX TEMP:  96;                                


$$
NMZ519>523-250700-
CENTRAL VALLEYS/CENTRAL HIGHLANDS
  
CITY           SKY/WX    TMP DP  RH WIND       PRES   REMARKS
ALBUQUERQUE    FAIR      74  31  20 E6        30.09S                  
6HR MIN TEMP:  74; 6HR MAX TEMP:  94;                                

DOUBLE EAGLE   FAIR      72  31  22 W9        30.13F                  
CLINES CORNERS FAIR      63  26  24 W8        30.23F                  
6HR MIN TEMP:  62; 6HR MAX TEMP:  86;                                

BELEN          FAIR      78  29  16 NW9       30.08S                  
6HR MIN TEMP:  74; 6HR MAX TEMP:  96;                                

SOCORRO        FAIR      81  31  16 NW5       30.06S                  
6HR MIN TEMP:  78; 6HR MAX TEMP:  94;                                


$$
NMZ524>526-539-540-250700-
SOUTHCENTRAL MOUNTAINS
  
CITY           SKY/WX    TMP DP  RH WIND       PRES   REMARKS
RUIDOSO        FAIR      68  45  42 W7        30.25S                  

$$
NMZ527>531-250700-
NORTHEAST HIGHLANDS/NORTHEAST PLAINS
  
CITY           SKY/WX    TMP DP  RH WIND       PRES   REMARKS
LAS VEGAS      FAIR      67  30  25 W8        30.18F                  
6HR MIN TEMP:  65; 6HR MAX TEMP:  87;                                

RATON          FAIR      63  45  51 N5        30.13S                  
6HR MIN TEMP:  63; 6HR MAX TEMP:  86;                                

CLAYTON        FAIR      69  62  78 S10       30.01F                  
6HR MIN TEMP:  68; 6HR MAX TEMP:  81;                                


$$
NMZ532>537-250700-
EASTCENTRAL PLAINS
  
CITY           SKY/WX    TMP DP  RH WIND       PRES   REMARKS
SANTA ROSA     FAIR      73  48  41 SE5       30.00S                  
TUCUMCARI      FAIR      77  61  57 S15G22    29.92S                  
6HR MIN TEMP:  73; 6HR MAX TEMP:  95;                                

CANNON AFB     FAIR      74  62  66 S10       30.01S                  
6HR MIN TEMP:  73; 6HR MAX TEMP:  92;                                

CLOVIS AIRPORT FAIR      71  63  75 S9        30.01S                  

$$
NMZ028-029-538-250700-
SOUTHEAST PLAINS
  
CITY           SKY/WX    TMP DP  RH WIND       PRES   REMARKS
ROSWELL        FAIR      85  52  32 S13       29.95R                  
6HR MIN TEMP:  82; 6HR MAX TEMP: 101;                                

ARTESIA        FAIR      84  55  37 S14       29.98S                  
CARLSBAD       FAIR      85  56  37 S12       29.95S                  
6HR MIN TEMP:  85; 6HR MAX TEMP:  99;                                

HOBBS          FAIR      79  61  53 S17       30.01R                  


$$